Weather in zheleznodorozhnaya stantsiya Torbino

Russia / Novgorod Oblast     58°34′44″N   32°52′52″E
temp.,
°C
wind,
m/s
gust,
m/s
humid.,
%
clouds,
%
prec.,
mm/h
press.,
hPa
HPBL,
m
5 march, fri
fri500:00−6wnw2596100 0.5 1004278
03:00−7wnw379699 0.6 1006370
06:00−7wnw389699 0.1 1006428
09:00−7nw369299 0.3 1008458
12:00−5nw3580100 0.1 1010829
15:00−4wnw3576100 0.3 1011919
18:00−6wnw3784100 0.3 1012408
21:00−8wnw2591100 0.4 1014145
6 march, sat
sat600:00−8wnw389584 0.2 1015409
03:00−9nw249791 0.4 1016140
06:00−11wnw239894 0.1 1016100
09:00−9w369488 0.1 1016270
12:00−5w357691 0.0 1015775
15:00−3wsw586763 0.0 10131176
18:00−5sw5126882 0.0 10091095
21:00−5sw8179291 0.6 10041325
7 march, sun
sun700:00−3sw81693100 2.1 9971345
03:00−3sw71594100 4.8 9941173
06:00−3wnw51095100 3.5 990800
09:00−5wnw2789100 4.1 989723
12:00−5nw5869100 0.1 9901186
15:00−5w356188 0.1 9911450
18:00−7ne2394100 0.4 992306
21:00−9nne2688100 1.0 993190
8 march, mon
mon800:00−13nw269117 0.0 995138
03:00−11wnw5119525 0.1 997486
06:00−9nnw51093100 0.8 999743
09:00−11nnw51190100 1.3 1002693
12:00−10nnw5986100 0.1 1005684
15:00−10nnw5986100 0.2 1008712
18:00−13nnw51091100 0.1 1011565
21:00−16nnw41095100 0.1 1014443
9 march, tue
tue900:00−17nnw2798100 0.1 1016210
03:00−19nw2210099 0.1 101770
06:00−20wnw229969 0.0 101723
09:00−17s119066 0.0 101763
12:00−11s1286100 0.1 1016359
15:00−9ese2388100 0.5 1016465
18:00−12e2494100 0.1 1015161
21:00−14e2693100 0.1 1017163